Location: Newark
(41.9000°N, 12.4833°E)
Time: 03:33:41
(UTC+00:00)

EO-88 - Pass Details

Date: 01 June 2019
Orbit: 484 x 494 km, 97.4° (Epoch: 16 June)

Event Time Altitude Azimuth Distance (km) Brightness Sun altitude
Exits shadow 20:19:07 29° 125° (SE) 936 ? -15.0°
Maximum altitude 20:20:31 43° 74° (ENE) 701 ? -15.2°
Drops below altitude 10° 20:24:00 10° 1° (N) 1,698 ? -15.6°
Sets 20:26:08 0° 355° (N) 2,585 ? -15.9°
